Time,TemperatureF,DewpointF,PressureIn,WindDirection,WindDirectionDegrees,WindSpeedMPH,WindSpeedGustMPH,Humidity,HourlyPrecipIn,Conditions,Clouds,dailyrainin,SoftwareType,DateUTC
2013-05-17 00:16:00,75.3,71.9,29.75,SE,134,2.2,6.0,89,0.00,,,0.00,WUHU216DAVISVP2,2013-05-17 05:16:00,
2013-05-17 00:46:00,75.4,72.0,29.76,SSE,161,3.3,8.0,89,0.00,,,0.00,WUHU216DAVISVP2,2013-05-17 05:46:00,
2013-05-17 01:16:00,75.7,72.3,29.76,SE,142,4.4,9.0,89,0.00,,,0.00,WUHU216DAVISVP2,2013-05-17 06:16:00,
2013-05-17 01:46:00,75.7,72.0,29.76,SSE,147,2.2,7.7,88,0.00,,,0.00,WUHU216DAVISVP2,2013-05-17 06:46:00,
2013-05-17 02:16:00,75.8,72.1,29.76,SSE,166,1.1,8.8,88,0.00,,,0.00,WUHU216DAVISVP2,2013-05-17 07:16:00,
2013-05-17 02:46:00,75.6,71.9,29.76,SSE,166,6.6,9.0,88,0.00,,,0.00,WUHU216DAVISVP2,2013-05-17 07:46:00,
2013-05-17 03:16:00,75.2,71.5,29.76,SE,133,5.5,9.0,88,0.00,,,0.00,WUHU216DAVISVP2,2013-05-17 08:16:00,
2013-05-17 03:46:00,75.1,71.4,29.76,SSE,149,1.1,6.6,88,0.00,,,0.00,WUHU216DAVISVP2,2013-05-17 08:46:00,
2013-05-17 04:16:00,74.9,70.9,29.76,SE,136,3.3,7.7,87,0.00,,,0.00,WUHU216DAVISVP2,2013-05-17 09:16:00,
2013-05-17 04:46:00,74.7,70.7,29.76,SSE,153,0.0,6.0,87,0.00,,,0.00,WUHU216DAVISVP2,2013-05-17 09:46:00,
2013-05-17 05:16:00,74.6,70.6,29.77,SSE,161,2.2,6.6,87,0.00,,,0.00,WUHU216DAVISVP2,2013-05-17 10:16:00,
2013-05-17 05:46:00,74.6,70.6,29.77,SE,143,2.2,5.5,87,0.00,,,0.00,WUHU216DAVISVP2,2013-05-17 10:46:00,
2013-05-17 06:16:00,74.4,70.4,29.78,SSE,148,2.2,7.7,87,0.00,,,0.00,WUHU216DAVISVP2,2013-05-17 11:16:00,
2013-05-17 06:46:00,74.2,70.2,29.79,SSE,155,0.0,6.0,87,0.00,,,0.00,WUHU216DAVISVP2,2013-05-17 11:46:00,
2013-05-17 07:16:00,74.2,70.2,29.80,SE,126,0.0,4.0,87,0.00,,,0.00,WUHU216DAVISVP2,2013-05-17 12:16:00,
2013-05-17 07:46:00,74.4,70.1,29.82,SSE,150,0.0,5.5,86,0.00,,,0.00,WUHU216DAVISVP2,2013-05-17 12:46:00,
2013-05-17 08:16:00,74.8,69.8,29.82,SE,138,2.2,6.6,84,0.00,,,0.00,WUHU216DAVISVP2,2013-05-17 13:16:00,
2013-05-17 08:46:00,75.0,70.0,29.83,SW,224,0.0,7.7,84,0.00,,,0.00,WUHU216DAVISVP2,2013-05-17 13:46:00,
2013-05-17 09:16:00,75.5,70.1,29.83,South,187,4.4,8.8,83,0.00,,,0.00,WUHU216DAVISVP2,2013-05-17 14:16:00,
2013-05-17 09:46:00,75.8,70.4,29.84,SE,137,6.6,8.8,83,0.00,,,0.00,WUHU216DAVISVP2,2013-05-17 14:46:00,
2013-05-17 10:16:00,76.7,71.0,29.84,SE,142,2.2,7.7,82,0.00,,,0.00,WUHU216DAVISVP2,2013-05-17 15:16:00,
2013-05-17 10:46:00,78.0,71.5,29.83,SE,143,5.5,7.7,80,0.00,,,0.00,WUHU216DAVISVP2,2013-05-17 15:46:00,
2013-05-17 11:16:00,79.9,72.3,29.83,SSE,152,5.5,11.0,77,0.00,,,0.00,WUHU216DAVISVP2,2013-05-17 16:16:00,
2013-05-17 11:46:00,81.6,73.2,29.83,SSE,155,0.0,7.0,75,0.00,,,0.00,WUHU216DAVISVP2,2013-05-17 16:46:00,
2013-05-17 12:16:00,84.2,74.1,29.82,South,172,5.5,9.0,71,0.00,,,0.00,WUHU216DAVISVP2,2013-05-17 17:16:00,
2013-05-17 12:46:00,86.1,75.1,29.82,South,169,3.3,9.0,69,0.00,,,0.00,WUHU216DAVISVP2,2013-05-17 17:46:00,
2013-05-17 13:16:00,87.8,74.5,29.81,SE,131,3.3,7.7,64,0.00,,,0.00,WUHU216DAVISVP2,2013-05-17 18:16:00,
2013-05-17 13:46:00,89.3,74.5,29.80,SSE,149,3.3,10.0,61,0.00,,,0.00,WUHU216DAVISVP2,2013-05-17 18:46:00,
2013-05-17 14:16:00,90.8,74.4,29.79,SE,132,3.3,12.1,58,0.00,,,0.00,WUHU216DAVISVP2,2013-05-17 19:16:00,
2013-05-17 14:46:00,92.6,73.4,29.79,SSW,195,6.6,14.3,53,0.00,,,0.00,WUHU216DAVISVP2,2013-05-17 19:46:00,
2013-05-17 15:16:00,93.6,74.3,29.78,SSE,155,4.4,11.0,53,0.00,,,0.00,WUHU216DAVISVP2,2013-05-17 20:16:00,
2013-05-17 15:46:00,94.2,73.7,29.77,SE,140,4.4,12.1,51,0.00,,,0.00,WUHU216DAVISVP2,2013-05-17 20:46:00,
2013-05-17 16:16:00,94.9,72.5,29.75,SE,137,6.6,14.3,48,0.00,,,0.00,WUHU216DAVISVP2,2013-05-17 21:16:00,
2013-05-17 16:46:00,95.6,71.9,29.74,SE,142,3.3,11.0,46,0.00,,,0.00,WUHU216DAVISVP2,2013-05-17 21:46:00,
2013-05-17 17:16:00,95.7,70.6,29.74,SSE,156,7.7,14.0,44,0.00,,,0.00,WUHU216DAVISVP2,2013-05-17 22:16:00,
2013-05-17 17:46:00,95.6,71.9,29.73,ESE,120,4.4,11.0,46,0.00,,,0.00,WUHU216DAVISVP2,2013-05-17 22:46:00,
2013-05-17 18:16:00,93.0,73.8,29.74,SE,140,6.6,12.1,53,0.00,,,0.00,WUHU216DAVISVP2,2013-05-17 23:16:00,
2013-05-17 18:46:00,90.5,74.1,29.74,SE,145,5.5,13.0,58,0.00,,,0.00,WUHU216DAVISVP2,2013-05-17 23:46:00,
2013-05-17 19:16:00,88.2,74.0,29.75,SSE,148,5.5,15.4,62,0.00,,,0.00,WUHU216DAVISVP2,2013-05-18 00:16:00,
2013-05-17 19:46:00,86.0,73.7,29.75,SE,129,7.7,14.0,66,0.00,,,0.00,WUHU216DAVISVP2,2013-05-18 00:46:00,
2013-05-17 20:16:00,84.4,73.5,29.77,ESE,107,5.5,8.0,69,0.00,,,0.00,WUHU216DAVISVP2,2013-05-18 01:16:00,
2013-05-17 20:30:00,83.4,73.4,29.78,SE,142,5.5,12.0,71,0.00,,,0.00,WUHU216DAVISVP2,2013-05-18 01:30:00,
2013-05-17 20:46:00,82.7,73.1,29.79,SE,143,3.3,11.0,72,0.00,,,0.00,WUHU216DAVISVP2,2013-05-18 01:46:00,
2013-05-17 21:00:00,81.9,72.7,29.80,SE,142,4.4,11.0,73,0.00,,,0.00,WUHU216DAVISVP2,2013-05-18 02:00:00,
2013-05-17 21:15:00,81.5,72.7,29.81,SE,140,1.1,11.0,74,0.00,,,0.00,WUHU216DAVISVP2,2013-05-18 02:15:00,
2013-05-17 22:02:00,79.8,71.1,29.82,ESE,117,4.4,8.0,74,0.00,,,0.00,WUHU216DAVISVP2,2013-05-18 03:02:00,
2013-05-17 22:32:00,78.7,70.8,29.83,SE,141,5.5,9.0,76,0.00,,,0.00,WUHU216DAVISVP2,2013-05-18 03:32:00,
2013-05-17 23:02:00,77.6,69.7,29.85,SE,143,4.4,7.0,76,0.00,,,0.00,WUHU216DAVISVP2,2013-05-18 04:02:00,
2013-05-17 23:32:00,77.1,68.8,29.85,SE,134,2.2,7.7,75,0.00,,,0.00,WUHU216DAVISVP2,2013-05-18 04:32:00,